Temp
69 70 74 74 75 74 74 74 74 74 75 75 75 75 76 76 75 75 76 76 76 77 77 77 77 77 77 76 75 75 74 74 74 75 76 76 76 75 74 74 73 74 75
71 71 73 74 74 74 74 74 74 75 75 75 75 75 75 75 75 75 75 76 76 77 77 76 76 76 76 75 74 74 73 73 73 74 75 75 75 75 74 73 74 74 75
71 72 73 73 74 74 75 75 75 76 76 75 75 75 75 75 75 75 75 76 76 77 77 77 76 76 75 74 73 73 73 72 72 72 73 70 72 75 75 74 74 74 75
72 73 75 73 74 74 74 75 75 76 75 75 75 75 75 75 75 75 75 75 76 77 77 77 76 76 74 73 72 72 72 72 72 72 70 71 74 75 75 75 74 75 75
71 74 75 72 73 74 74 74 74 75 74 74 74 75 75 75 75 75 74 74 75 77 77 77 75 74 73 72 71 71 71 71 70 71 68 69 70 75 76 75 74 74 73
72 75 72 71 72 73 74 74 74 74 74 74 74 74 75 75 75 74 73 74 74 76 77 77 74 72 71 71 70 70 70 70 67 66 67 70 70 75 75 74 72 72 72
71 73 72 70 72 73 74 74 73 73 73 73 73 73 74 74 74 73 72 73 73 74 75 75 73 71 70 70 70 69 69 69 66 66 66 67 68 75 75 73 72 72 72
70 72 72 71 72 72 73 72 72 72 72 72 73 73 73 73 72 72 72 72 72 73 73 72 71 71 70 70 69 68 68 68 68 66 66 66 69 74 75 72 71 71 71
70 71 71 70 71 70 70 70 70 70 71 71 71 71 72 71 71 71 71 72 72 72 72 71 71 70 70 69 69 67 67 68 63 64 66 64 69 73 74 72 71 71 71
68 71 71 71 72 74 72 69 69 69 69 70 70 70 69 70 70 70 70 71 71 71 71 71 70 69 69 69 68 67 66 67 63 63 63 63 68 72 74 73 72 71 70
67 69 69 70 70 72 73 74 72 71 69 69 69 69 68 67 67 67 68 69 71 70 70 70 70 69 67 67 67 67 67 63 63 62 62 64 68 72 74 73 72 71 70
65 65 69 70 69 70 72 72 72 71 69 68 68 67 67 68 65 67 67 68 70 70 70 69 69 68 67 65 63 65 62 62 62 62 62 65 68 72 73 72 72 71 70
67 66 66 68 69 70 71 70 69 69 68 66 66 66 68 68 64 64 64 64 65 67 65 66 65 65 64 63 63 62 62 61 61 62 63 65 67 71 73 73 71 71 70
65 65 65 65 66 67 68 68 69 67 66 65 65 65 64 64 63 63 63 63 63 63 63 63 62 63 63 63 63 62 62 61 61 61 61 64 66 70 72 73 72 71 70
65 66 65 65 65 65 65 64 64 64 65 64 65 65 64 63 63 62 62 63 63 63 63 62 62 62 62 62 63 62 62 62 61 61 60 63 64 67 70 73 73 71 71
67 66 66 65 65 65 65 65 64 65 65 65 67 68 67 66 65 63 62 62 63 63 63 63 62 63 62 62 62 62 63 63 62 61 61 61 63 65 68 70 72 72 71
67 67 66 66 66 65 66 66 66 66 69 68 68 69 68 67 67 66 64 64 64 63 64 64 64 63 63 63 62 62 63 63 63 61 61 61 62 63 65 67 69 71 71
66 67 67 68 66 65 66 66 67 69 69 68 68 67 67 67 67 66 65 65 65 65 64 64 64 64 63 64 64 64 63 62 63 63 62 62 62 64 63 65 67 69 69
63 65 67 67 66 66 66 66 66 67 66 67 67 66 66 66 66 65 65 64 65 65 65 65 64 63 63 64 63 64 64 64 64 65 64 63 63 64 65 64 64 65 67
60 68 67 67 67 67 65 65 64 63 64 64 63 61 60 61 62 61 60 60 61 62 61 60 60 62 62 62 63 63 64 65 65 65 65 65 64 63 64 64 64 65 64
60 63 64 66 65 65 65 62 58 58 58 56 56 57 56 58 58 57 56 57 57 60 58 58 58 57 57 58 56 57 58 61 61 63 62 64 63 63 63 63 62 63 63
60 63 63 63 62 62 62 59 57 55 54 54 54 54 55 55 55 56 54 54 55 57 56 57 56 55 55 56 54 54 50 53 55 58 59 61 60 63 62 62 63 63 63
56 60 60 59 58 57 58 55 53 53 52 52 52 52 53 54 55 54 54 54 54 55 54 54 54 53 52 54 55 52 48 46 51 55 56 56 57 58 60 60 61 61 61
54 55 57 57 58 56 55 53 53 51 50 49 49 50 52 53 54 54 54 54 53 53 52 52 54 52 52 52 53 55 53 52 48 47 52 55 55 56 58 60 60 60 61
53 53 53 54 53 53 52 52 50 49 49 49 49 50 51 52 53 53 53 52 51 51 51 51 51 50 50 52 52 53 53 50 50 48 46 49 52 56 57 58 59 60 60
51 51 51 52 51 52 52 52 52 51 50 50 49 49 50 51 51 52 52 51 51 50 50 49 49 49 49 49 49 49 49 47 47 46 45 47 47 51 53 55 55 57 58
MSLP
1012.38 1012.53 1013.00 1013.61 1013.69 1014.01 1014.10 1014.38 1014.55 1014.73 1014.97 1015.19 1015.46 1015.78 1015.85 1016.02 1016.21 1016.47 1016.72 1016.79 1017.00 1017.18 1017.34 1017.53 1017.63 1017.73 1017.84 1018.02 1018.10 1018.22 1018.27 1018.28 1018.31 1018.23 1018.26 1018.40 1018.46 1018.43 1018.56 1018.53 1018.33 1018.28 1018.33
1011.52 1012.33 1012.99 1013.45 1013.79 1014.17 1014.49 1014.71 1015.04 1015.26 1015.44 1015.57 1015.82 1016.03 1016.20 1016.48 1016.69 1016.83 1016.95 1017.04 1017.13 1017.26 1017.47 1017.63 1017.88 1018.01 1018.23 1018.40 1018.51 1018.65 1018.69 1018.74 1018.70 1018.57 1018.65 1018.71 1018.77 1018.78 1018.75 1018.82 1018.71 1018.47 1018.37
1011.60 1012.42 1013.14 1013.58 1013.81 1014.13 1014.57 1014.91 1015.18 1015.48 1015.57 1015.89 1016.05 1016.20 1016.40 1016.75 1017.05 1017.30 1017.41 1017.50 1017.54 1017.68 1017.88 1018.05 1018.18 1018.29 1018.42 1018.70 1018.79 1018.87 1018.97 1019.07 1019.08 1018.91 1018.93 1019.11 1019.01 1018.99 1018.99 1018.98 1019.02 1018.78 1018.54
1011.68 1012.41 1013.13 1013.63 1013.92 1014.19 1014.53 1014.88 1015.21 1015.64 1015.79 1016.01 1016.40 1016.60 1016.87 1016.94 1017.18 1017.46 1017.78 1017.97 1018.10 1018.22 1018.33 1018.49 1018.56 1018.65 1018.80 1018.91 1019.00 1019.10 1019.22 1019.25 1019.31 1019.31 1019.27 1019.26 1019.17 1019.09 1019.06 1019.21 1019.09 1019.09 1018.99
1012.25 1012.52 1013.24 1013.85 1014.24 1014.48 1014.76 1015.12 1015.32 1015.72 1015.98 1016.26 1016.60 1016.95 1017.27 1017.53 1017.68 1017.84 1018.05 1018.28 1018.42 1018.52 1018.63 1018.76 1018.95 1019.14 1019.33 1019.38 1019.31 1019.30 1019.33 1019.39 1019.41 1019.43 1019.54 1019.54 1019.44 1019.22 1019.21 1019.22 1019.30 1019.33 1019.30
1012.57 1012.90 1013.55 1014.11 1014.53 1014.77 1014.99 1015.33 1015.59 1016.01 1016.28 1016.58 1016.95 1017.27 1017.60 1017.80 1017.98 1018.16 1018.33 1018.44 1018.57 1018.72 1018.80 1018.95 1019.28 1019.49 1019.64 1019.76 1019.83 1019.80 1019.63 1019.48 1019.40 1019.55 1019.59 1019.60 1019.69 1019.45 1019.48 1019.52 1019.61 1019.62 1019.63
1012.97 1013.35 1013.83 1014.32 1014.68 1015.01 1015.26 1015.65 1015.90 1016.27 1016.58 1016.82 1017.16 1017.41 1017.60 1017.80 1018.00 1018.18 1018.40 1018.58 1018.72 1018.84 1018.96 1019.03 1019.29 1019.55 1019.77 1019.99 1020.00 1020.07 1020.09 1019.97 1019.91 1019.74 1019.85 1019.75 1019.71 1019.61 1019.68 1019.79 1019.81 1019.77 1019.84
1013.15 1013.67 1014.14 1014.65 1014.92 1015.28 1015.56 1015.86 1016.12 1016.42 1016.68 1016.97 1017.24 1017.44 1017.68 1017.89 1018.23 1018.43 1018.55 1018.66 1018.76 1018.91 1018.97 1019.07 1019.24 1019.34 1019.51 1019.79 1020.05 1020.26 1020.32 1020.25 1020.20 1020.18 1020.13 1020.09 1019.74 1019.65 1019.77 1019.86 1019.91 1019.98 1019.91
1013.33 1013.72 1014.15 1014.76 1015.11 1015.47 1015.78 1015.98 1016.26 1016.55 1016.83 1017.05 1017.29 1017.53 1017.79 1018.03 1018.22 1018.41 1018.54 1018.72 1018.87 1019.01 1019.14 1019.25 1019.40 1019.51 1019.49 1019.64 1019.97 1020.09 1020.23 1020.36 1020.54 1020.46 1020.34 1020.38 1020.11 1019.83 1019.73 1019.91 1019.94 1019.94 1019.96
1013.68 1013.77 1014.13 1014.61 1014.99 1015.45 1015.81 1016.07 1016.30 1016.54 1016.76 1016.97 1017.31 1017.60 1017.82 1018.02 1018.11 1018.22 1018.46 1018.67 1018.87 1019.06 1019.24 1019.43 1019.52 1019.55 1019.62 1019.74 1020.04 1020.15 1020.21 1020.28 1020.39 1020.42 1020.50 1020.56 1020.40 1020.09 1019.88 1019.92 1019.88 1019.90 1019.94
1014.04 1014.21 1014.27 1014.61 1015.06 1015.43 1015.75 1016.03 1016.37 1016.64 1016.85 1017.02 1017.26 1017.48 1017.80 1018.08 1018.26 1018.34 1018.45 1018.62 1018.76 1018.94 1019.10 1019.22 1019.39 1019.60 1019.80 1019.84 1019.87 1020.06 1020.07 1020.36 1020.47 1020.43 1020.37 1020.25 1020.36 1020.22 1020.02 1020.02 1020.08 1020.06 1019.94
1014.11 1014.30 1014.44 1014.49 1014.78 1015.26 1015.62 1015.92 1016.19 1016.51 1016.83 1017.20 1017.49 1017.70 1017.86 1018.08 1018.29 1018.42 1018.52 1018.63 1018.78 1018.87 1018.98 1019.12 1019.22 1019.31 1019.42 1019.66 1019.78 1019.85 1020.02 1020.08 1020.16 1020.27 1020.24 1020.21 1020.00 1020.04 1020.03 1020.06 1020.11 1020.14 1020.18
1013.92 1014.13 1014.28 1014.59 1014.87 1015.15 1015.31 1015.75 1016.16 1016.44 1016.89 1017.22 1017.52 1017.80 1017.99 1018.13 1018.31 1018.51 1018.66 1018.71 1018.77 1018.79 1018.97 1019.02 1019.17 1019.28 1019.36 1019.40 1019.43 1019.57 1019.79 1019.90 1019.97 1020.02 1020.04 1019.93 1020.02 1019.97 1019.73 1019.80 1020.09 1020.19 1020.20
1013.78 1014.10 1014.33 1014.65 1014.95 1015.31 1015.61 1015.83 1016.21 1016.61 1016.98 1017.31 1017.54 1017.77 1017.97 1018.18 1018.33 1018.44 1018.53 1018.69 1018.80 1018.91 1018.99 1019.12 1019.14 1019.11 1019.16 1019.23 1019.28 1019.30 1019.33 1019.41 1019.39 1019.31 1019.30 1019.29 1019.32 1019.34 1019.58 1019.70 1019.88 1020.02 1020.05
1013.42 1013.64 1014.20 1014.51 1014.98 1015.32 1015.70 1016.00 1016.30 1016.55 1016.76 1016.98 1017.22 1017.48 1017.73 1018.01 1018.13 1018.21 1018.40 1018.53 1018.56 1018.61 1018.76 1018.86 1018.93 1018.94 1019.02 1018.95 1018.91 1019.02 1018.90 1018.78 1018.78 1018.78 1018.74 1018.64 1018.71 1018.79 1018.80 1018.74 1019.06 1019.34 1019.70
1013.01 1013.48 1014.01 1014.55 1014.83 1015.15 1015.71 1015.95 1016.09 1016.30 1016.47 1016.77 1016.90 1017.10 1017.44 1017.75 1017.91 1018.14 1018.35 1018.47 1018.44 1018.58 1018.60 1018.63 1018.64 1018.65 1018.66 1018.67 1018.58 1018.51 1018.43 1018.32 1018.13 1018.08 1018.08 1018.12 1018.02 1017.95 1017.95 1018.04 1018.14 1018.43 1018.64
1012.76 1013.25 1013.86 1014.40 1014.62 1015.19 1015.64 1015.69 1015.88 1016.10 1016.36 1016.69 1016.92 1017.11 1017.28 1017.48 1017.66 1017.88 1018.10 1018.18 1018.27 1018.31 1018.34 1018.44 1018.39 1018.37 1018.38 1018.22 1018.10 1017.95 1017.96 1017.77 1017.71 1017.60 1017.62 1017.62 1017.61 1017.44 1017.43 1017.60 1017.52 1017.64 1017.98
1012.77 1013.14 1013.77 1014.26 1014.73 1015.06 1015.39 1015.72 1015.92 1016.05 1016.36 1016.77 1017.07 1017.29 1017.36 1017.36 1017.55 1017.72 1017.91 1018.04 1018.06 1018.10 1018.15 1018.14 1018.23 1018.16 1018.09 1017.97 1017.82 1017.59 1017.47 1017.33 1017.12 1017.03 1016.95 1016.81 1016.89 1016.97 1016.94 1016.78 1017.09 1017.32 1017.33
1012.90 1013.14 1013.42 1014.15 1014.68 1015.13 1015.41 1015.67 1016.07 1016.34 1016.68 1017.02 1017.22 1017.46 1017.62 1017.68 1017.78 1017.89 1018.06 1018.18 1018.18 1018.10 1018.15 1018.24 1018.31 1018.26 1018.08 1017.83 1017.66 1017.39 1017.16 1017.00 1016.68 1016.32 1016.20 1016.11 1016.08 1016.16 1016.22 1016.22 1016.39 1016.48 1016.57
1013.23 1013.19 1013.54 1014.17 1014.96 1015.41 1015.74 1016.19 1016.40 1017.03 1017.45 1017.69 1017.94 1018.16 1018.21 1018.20 1018.15 1018.29 1018.45 1018.48 1018.46 1018.56 1018.55 1018.61 1018.58 1018.37 1018.24 1017.96 1017.64 1017.22 1016.87 1016.44 1016.19 1015.90 1015.69 1015.39 1015.39 1015.46 1015.34 1015.55 1015.72 1015.98 1016.17
1013.63 1013.61 1013.86 1014.23 1015.09 1015.71 1016.01 1016.70 1017.19 1017.89 1018.09 1018.45 1018.47 1018.52 1018.58 1018.56 1018.62 1018.75 1018.94 1018.96 1018.91 1018.99 1018.88 1018.82 1018.71 1018.52 1018.40 1018.10 1017.73 1017.18 1016.46 1015.85 1015.95 1015.66 1015.59 1015.44 1015.23 1015.14 1015.40 1015.30 1015.29 1015.22 1015.23
1014.06 1014.15 1014.28 1014.65 1015.30 1015.74 1016.07 1016.64 1017.14 1017.76 1018.17 1018.38 1018.44 1018.29 1018.39 1018.49 1018.63 1018.66 1018.76 1018.86 1018.75 1018.75 1018.78 1018.86 1019.04 1019.03 1018.70 1018.31 1018.33 1017.84 1016.99 1016.17 1015.92 1015.95 1015.49 1015.29 1015.00 1014.69 1014.74 1014.62 1014.69 1014.68 1014.65
1014.41 1014.56 1014.77 1015.09 1015.42 1015.92 1016.40 1016.74 1017.42 1017.89 1018.28 1018.63 1018.86 1019.08 1019.06 1018.81 1018.74 1018.75 1018.82 1018.89 1019.04 1019.14 1019.26 1019.20 1019.27 1019.28 1019.11 1018.69 1018.41 1018.54 1018.02 1017.32 1016.78 1015.75 1015.78 1015.61 1015.38 1015.01 1014.66 1014.38 1014.15 1014.09 1014.03
1014.95 1015.03 1015.03 1015.30 1015.70 1016.23 1016.56 1017.00 1017.74 1018.37 1018.99 1019.40 1019.32 1019.24 1019.08 1019.02 1019.07 1019.02 1019.05 1019.03 1019.07 1019.16 1019.35 1019.37 1019.31 1019.21 1019.16 1019.09 1018.68 1018.30 1018.36 1018.27 1017.58 1016.15 1015.79 1015.79 1015.68 1015.49 1014.81 1014.22 1013.84 1013.71 1013.62
1014.95 1015.23 1015.43 1015.64 1016.13 1016.58 1016.92 1017.27 1017.87 1018.43 1018.90 1018.94 1019.06 1019.15 1019.22 1019.10 1019.02 1019.09 1019.08 1019.05 1019.02 1019.04 1019.00 1018.88 1018.89 1019.00 1019.09 1019.13 1018.86 1018.62 1018.43 1018.26 1017.98 1017.67 1015.78 1015.54 1015.43 1015.44 1015.32 1014.64 1013.63 1013.08 1013.05
1015.08 1015.37 1015.71 1015.99 1016.52 1016.69 1016.86 1017.27 1017.72 1018.42 1018.93 1019.25 1019.50 1019.58 1019.46 1019.10 1018.83 1018.77 1018.65 1018.73 1018.79 1018.66 1018.58 1018.63 1018.63 1018.68 1018.67 1018.75 1018.82 1018.76 1018.64 1018.35 1017.90 1017.64 1016.85 1015.33 1014.60 1013.77 1013.69 1014.42 1014.14 1013.43 1012.65
Wind_Speed
5 6 10 10 14 14 16 14 13 12 14 15 15 14 15 15 14 13 12 12 12 12 12 11 11 12 13 13 13 12 11 10 11 11 12 12 12 12 11 11 10 8 14
10 9 11 9 12 14 15 16 15 15 15 15 14 13 13 12 12 11 11 11 12 12 12 12 12 12 13 12 12 12 12 9 9 10 10 11 11 12 11 10 9 9 11
12 11 9 10 11 13 14 15 15 15 16 15 15 14 14 13 11 9 9 9 10 11 11 10 11 12 12 12 11 11 10 9 7 8 8 3 3 10 11 11 9 11 10
13 11 12 11 12 13 13 13 14 13 14 14 12 13 12 13 12 11 8 7 7 8 9 8 9 10 11 10 9 8 6 4 3 4 3 3 3 7 9 9 10 9 7
9 11 11 10 10 12 13 12 13 12 12 13 12 11 10 10 10 10 8 7 5 5 6 6 7 7 7 8 8 7 5 4 2 4 3 2 2 5 7 7 7 9 6
10 10 11 10 10 11 12 12 12 11 11 11 10 10 9 9 8 8 7 6 5 4 3 4 5 5 5 7 6 6 5 5 5 4 3 3 2 4 7 7 9 9 8
11 10 11 10 10 10 11 11 11 11 10 11 10 10 9 8 7 7 6 5 4 3 3 3 5 4 4 5 6 6 6 6 3 3 2 2 2 4 5 7 8 7 8
12 10 10 9 9 9 10 10 10 10 10 10 9 9 8 8 6 5 4 4 3 3 3 3 4 2 1 2 4 5 6 6 2 1 1 2 4 5 5 6 7 7 6
9 10 9 6 8 9 8 9 9 9 8 8 8 7 7 7 6 5 5 4 3 3 2 1 1 1 1 2 3 4 3 4 3 2 2 2 6 6 7 7 7 7 7
8 10 9 8 6 9 6 10 9 8 9 8 7 6 6 6 7 7 6 5 4 3 2 1 1 2 3 5 3 1 1 0 0 2 2 3 9 9 9 10 9 9 8
6 9 7 8 8 9 8 9 10 8 6 7 7 7 5 2 3 4 4 6 6 5 4 4 3 3 4 5 5 2 2 1 2 3 2 7 10 12 10 10 10 9 9
9 9 11 10 10 9 8 7 8 5 4 4 3 3 3 3 3 3 4 5 6 6 6 6 6 6 5 3 3 1 1 2 2 3 3 10 12 14 13 11 11 10 10
9 7 9 11 11 11 8 6 3 2 2 2 3 3 3 2 2 2 1 2 3 5 2 4 4 3 4 3 3 3 3 3 2 2 4 9 12 15 15 13 13 13 12
7 6 7 7 8 8 5 6 6 4 3 2 3 4 3 2 2 3 2 3 3 2 4 3 3 4 5 5 5 5 4 4 3 3 5 10 13 16 16 15 13 14 14
8 7 7 7 6 5 5 4 4 4 4 4 4 4 4 3 4 3 3 3 3 3 3 4 4 4 4 5 5 5 6 5 6 4 4 12 13 17 19 18 16 15 16
8 7 7 6 6 6 4 5 4 3 4 3 3 4 5 3 3 3 2 4 3 3 3 3 4 4 5 4 6 7 8 7 7 6 5 6 15 17 20 21 20 18 17
6 7 9 8 7 7 6 5 4 3 3 2 1 2 3 4 3 3 3 3 3 3 4 3 4 4 5 5 8 7 6 8 8 8 6 6 7 18 19 20 20 19 19
7 10 9 7 7 7 6 4 3 4 4 4 3 3 5 4 1 1 1 2 3 3 3 4 4 4 5 6 7 7 6 6 8 9 7 7 7 7 14 22 22 21 20
4 8 11 10 8 6 5 5 5 6 5 5 6 6 7 7 7 5 4 3 4 3 3 4 4 3 6 6 6 7 6 6 8 7 10 10 11 10 8 14 23 23 22
4 9 11 8 8 6 7 5 6 6 6 5 6 6 7 5 7 5 4 5 5 4 4 3 3 3 2 5 6 7 6 5 7 7 9 9 9 10 11 11 9 13 21
5 8 8 12 8 7 5 4 4 4 3 4 4 5 5 5 6 6 4 3 2 3 2 3 3 3 3 3 3 7 4 8 6 6 4 7 7 8 9 9 7 8 10
6 8 10 10 8 6 3 4 4 4 3 4 2 5 7 7 6 5 4 4 4 3 5 4 4 3 2 3 3 5 5 6 3 6 4 5 7 6 8 10 11 12 10
8 9 11 9 9 8 6 6 4 4 3 4 4 4 4 6 6 6 6 5 5 4 3 3 4 5 2 2 2 2 4 3 9 2 5 4 6 5 6 7 10 12 11
7 7 10 10 10 8 7 7 7 4 3 1 2 1 2 5 5 5 5 4 4 2 4 2 2 1 1 4 3 1 2 3 4 7 2 7 6 8 10 9 9 10 12
8 8 8 10 9 8 8 8 6 6 3 1 2 4 4 2 3 3 3 3 4 2 1 1 3 4 1 2 3 3 4 3 3 3 12 4 2 6 9 9 9 8 10
7 8 8 9 7 7 8 8 9 8 5 3 3 3 3 2 3 3 2 1 2 2 2 2 2 2 3 3 3 4 3 3 4 4 5 8 8 4 3 8 8 8 8
Wind_Direction
211 149 155 156 131 125 122 120 113 106 105 108 112 119 118 119 120 118 117 116 111 111 110 106 104 104 105 103 103 104 100 90 92 88 112 91 88 90 86 77 82 91 92
132 146 152 144 127 123 121 120 121 120 118 113 112 110 108 109 111 115 119 122 125 123 121 117 114 109 108 108 108 108 103 92 92 101 101 102 103 96 98 86 72 65 100
133 140 142 141 133 123 121 119 118 119 120 118 119 118 118 115 111 110 115 124 126 124 121 123 121 113 112 111 106 107 108 93 99 92 104 105 114 117 113 114 86 65 58
132 139 156 147 143 132 125 121 118 118 117 118 115 114 120 123 120 119 106 97 113 118 118 121 118 112 115 107 98 96 97 97 103 93 103 114 135 139 140 126 124 116 100
122 135 156 142 140 133 129 127 123 123 118 115 117 116 115 111 116 117 109 107 97 115 115 109 99 99 96 90 90 94 84 48 22 131 113 94 64 109 126 110 122 117 110
126 136 147 135 137 136 133 129 124 124 121 116 108 109 112 117 116 108 108 107 94 85 85 103 83 71 77 81 67 55 56 55 86 143 141 149 85 121 105 111 116 106 108
131 134 142 137 140 137 131 127 126 123 122 115 119 120 125 129 130 129 129 127 115 99 54 69 101 63 50 54 59 46 15 21 59 120 139 147 183 143 122 117 110 111 107
126 133 135 136 132 127 128 131 129 132 131 131 136 137 135 132 133 137 141 145 143 139 131 110 120 126 63 70 65 43 16 1 348 201 182 242 219 178 167 143 136 129 121
116 134 132 124 130 120 130 136 137 137 136 142 143 140 143 141 149 162 173 180 180 181 180 171 176 236 300 323 91 83 42 14 17 261 227 262 262 222 192 181 171 163 154
119 142 144 143 141 161 162 154 148 145 149 150 153 148 151 162 171 181 186 198 203 206 204 234 219 274 305 308 314 144 169 337 289 247 257 263 263 241 221 207 194 186 179
131 153 147 152 158 166 171 173 169 162 160 161 162 168 161 171 198 203 194 208 217 220 221 215 225 257 288 296 296 303 287 274 253 259 245 245 251 248 241 233 227 210 195
170 171 172 171 164 165 170 172 177 161 160 161 169 183 172 199 222 213 224 223 230 227 232 236 239 239 245 232 266 314 189 261 262 253 269 254 235 242 248 242 236 227 222
183 179 179 171 175 172 168 163 148 141 151 156 175 174 198 230 243 257 266 271 244 243 235 239 248 248 241 240 241 242 212 217 240 248 262 253 244 244 243 240 241 234 230
171 181 167 164 166 173 153 163 169 171 156 160 177 198 194 218 237 243 232 237 248 257 253 250 249 246 248 253 254 256 238 220 215 224 231 238 236 235 246 249 245 244 241
182 177 175 156 143 145 151 153 158 174 174 185 186 205 198 212 227 231 239 242 238 223 222 234 239 246 255 250 249 243 253 234 226 224 227 228 228 231 236 240 238 237 244
179 168 145 148 144 150 145 170 184 183 184 193 197 204 202 213 227 236 251 254 261 248 246 241 239 243 247 232 254 242 247 246 239 224 220 228 225 226 227 233 234 231 229
176 145 153 149 156 150 167 176 178 191 172 181 204 292 265 222 215 213 231 252 262 251 251 251 256 247 258 248 252 248 244 245 249 239 225 229 236 228 224 229 231 229 227
157 166 151 150 150 153 167 167 125 105 97 86 69 53 37 32 321 245 287 293 280 264 247 247 252 252 256 268 273 266 248 246 247 241 229 229 225 229 232 224 225 228 224
189 166 148 146 154 150 128 113 101 80 67 59 56 45 38 40 40 47 38 18 7 5 351 342 334 304 313 306 294 278 269 252 253 249 237 231 227 228 226 232 227 223 222
134 158 146 134 132 110 104 94 81 70 66 64 66 51 36 39 42 46 36 26 24 26 11 355 333 333 304 296 306 298 287 262 256 245 244 241 237 230 225 227 222 226 225
84 114 121 123 114 123 110 102 85 93 96 72 78 84 77 74 63 61 51 38 42 27 336 1 335 320 315 325 318 318 268 259 275 270 282 269 260 243 246 239 236 231 223
109 108 105 103 104 104 112 107 119 131 105 105 69 50 40 41 42 54 44 34 42 25 21 18 11 328 297 345 314 306 331 308 15 326 274 260 259 255 241 238 233 232 229
112 118 114 110 103 97 109 105 85 68 50 39 24 22 13 38 42 45 44 38 39 48 35 14 5 7 320 305 3 265 333 296 321 282 309 293 296 286 276 258 241 232 225
127 112 110 111 105 98 97 89 93 112 114 130 140 187 29 41 56 52 55 62 68 56 33 3 341 297 340 302 306 191 260 281 308 316 22 323 334 309 284 271 261 247 240
140 133 118 107 102 109 108 114 112 95 103 127 79 42 28 41 70 76 71 57 51 52 29 344 346 342 299 289 282 308 270 253 260 288 304 286 278 319 307 288 266 250 238
141 129 124 116 113 116 104 98 103 112 118 83 41 50 3 347 9 21 31 172 205 209 229 252 246 247 247 249 263 257 247 245 248 246 255 296 285 217 228 308 288 278 262